Tracking 21470 objects as of 23-Sep-2020
HD Live streaming from Space Station
objects crossing your sky now

OPS 9321 (IDSCS 8)

Track OPS 9321 (IDSCS 8) now!
OPS 9321 (IDSCS 8) is classified as:


NORAD ID: 2645
Int'l Code: 1967-003A
Perigee: 33,530.7 km
Apogee: 33,827.4 km
Inclination: 4.5 °
Period: 1,329.4 minutes
Semi major axis: 40050 km
RCS: 0.3981 m2 (medium)
Launch date: January 18, 1967
Source: United States (US)
Launch site: AIR FORCE EASTERN TEST RANGE (AFETR)
aabbcc
Your satellite tracking list
Your tracking list is empty




NASA's NSSDC Master Catalog

Two Line Element Set (TLE):
1  2645U 67003A   20266.61368639 -.00000112  00000-0  00000+0 0  9995
2  2645   4.5019  57.7859 0037042  63.0043 142.2513  1.08317295211773
Source of the keplerian elements: AFSPC